Погода в Поронайске

Погода в Поронайске : погода сейчас, прогноз погоды и архив. Всё, что Вы хотите узнать о погоде в Поронайске!

Хотите узнать прогноз погоды в Поронайске? Тогда Вам сюда: Погода в Поронайске

Поиск расширенной информации на нашем сайте:

Другие новости

Новости СМИ2

Главная страница сайта

Новости сайта

03.07.2017

Напоминаем, что на нашем специализированном сайте Метеоцентр.Азия вы можете получить высокодетализированные автоматические прогнозы погоды по пунктам России, СНГ и мира в авиационном формате (включающие направление и скорость ветра, видимость, явления погоды, количество и форму облачности, нижнюю и верхнюю границу облачности).

Рекомендуем: Самая подробная информация услуги аренды персонала на сайте.

Погода в Поронайске - сегодня

Время (UTC), дата Ветер
(°,м/с) 
Видим.   Явления Облачность Т
(°С)
Тd
(°С)
f(%) Тe
(°С)
Pmin
(гПа)
dP
(гПа)
Po
(мм)
O2
(г/м3)
Тmin Tmax R s Состояние
почвы
12 09.12.17 020 (С) 2-3{05}  20000 м    10/1 600 м кучево-дожд., верхняя 
[Cb cap|Ci ing]
-18.9 -22.4 74 -22  1005.3  -0.2  753  328           
15 09.12.17 020 (С) 2-3{04}  20000 м  {ливн. осадки}  4/0 верхняя 
[Ci fib]
-22.5 -25 80 -25  1005  -0.3  753  332           
18 09.12.17 030 (СВ) 2-2{03}  10 км  слаб. ливневой снег  10/3 600 м кучево-дожд., верхняя 
[Cb cap|Ci fib]
-22.1 -24.4 82 -25  1005.5  0.5  753  332           
21 09.12.17 020 (С) 1-3{03}  20000 м  {ливн. осадки}  ясно 
-18.4 -21.2 79 -19  1006.5  754  327  -27    0.0  51  равномерный
сухой снег
100% 
00 10.12.17 010 (С) 2-2{09}  20000 м  {ливн. осадки}  6/1 600 м кучево-дожд., средняя, верхняя 
[Cb cap|Ac lent|Cc]
-14.9 -19.1 70 -17  1008.9  2.4  756  324           
03 10.12.17 290 (З) 6-8{09}  20000 м    1/1 600 м кучево-дожд. 
[Cb cap]
-7.4 -15.2 54 -12  1010.3  1.5  757  315           
06 10.12.17 290 (З) 4-6{09}  20000 м  позёмок  1/1 600 м кучево-дожд. 
[Cb cap]
-7.8 -15.6 54 -11  1012.8  2.4  759  316           
09 10.12.17 250 (З) 3-4{07}  20000 м    ясно 
-11.4 -16.5 66 -15  1014.5  1.7  760  321    -6.8       
12 10.12.17 290 (З) 2-3{05}  20000 м    3/3 600 м кучево-дожд. 
[Cb cap]
-15.2 -17.9 80 -17  1015.6  1.1  761  326           
15 10.12.17 320 (СЗ) 1-1{04}  20000 м    4/3 600 м кучево-дожд., верхняя 
[Cb cap|Ci ing]
-16.9 -18.7 86 -17  1016.8  1.2  762  329           
18 10.12.17 320 (СЗ) 2-3{03}  20000 м    ясно 
-19.8 -21.8 84 -23  1016.6  -0.2  761  332           
21 10.12.17 330 (СЗ) 2-2{04}  20000 м    ясно 
-17.5 -19.3 86 -20  1015.9  -0.6  761  329  -20.4      51  равномерный
сухой снег
100% 
00 11.12.17 310 (СЗ) 2-2{05}  20000 м    10/0 верхняя 
[Ci ing]
-15.6 -17.5 85 -18  1015.8  -0.1  761  327  -21.4         
03 11.12.17 020 (С) 4-7{08}  20000 м    10/0 средняя, верхняя 
[Ac As|Ci ing]
-9.4 -14.2 68 -13  1012.6  -3.2  759  318           
06 11.12.17 020 (С) 3-6{08}  20000 м    10/0 средняя, верхняя 
[Ac As|Ci ing]
-9.4 -13.9 70 -12  1011.2  -1.3  758  317           
09 11.12.17 020 (С) 4-8{08}  20000 м  слаб. ливневой снег  10/6 300 м кучево-дожд., средняя, верхняя 
[Cb cap|Ac As|Ci ing]
-10.1 -13.2 78 -14  1010  -1.2  757  318    -9.2  0.0     
12 11.12.17 360 (С) 5-7{10}  2000 м  слаб. ливневой снег  10/10 300 м кучево-дожд. 
[Cb cap]
-9.9 -11.4 89 -15  1008.1  -2  755  317           
15 11.12.17 360 (С) 5-7{09}  1000 м  ливневой снег  10/10 100 м кучево-дожд. 
[Cb cap]
-8.8 -10 91 -13  1005.4  -2.7  753  315           
18 11.12.17 010 (С) 5-7{09}  1000 м  ливневой снег  10/10 100 м кучево-дожд. 
[Cb cap]
-6.8 -7.9 92 -11  1002.7  -2.7  751  311           
21 11.12.17 010 (С) 6-10{10}  4000 м  слаб. ливневой снег  10/10 210 м кучево-дожд. 
[Cb cap]
-5.4 -6.5 92 -10  999.7  -2.9  749  309  -10.2    59  равномерный
сухой снег
100% 
00 12.12.17 010 (С) 7-12{12}  4000 м  слаб. ливневой снег  10/10 240 м кучево-дожд. 
[Cb cap]
-4.1 -6.5 83 -9  996.4  -3.3  746  306           
03 12.12.17 010 (С) 6-11{13}  2000 м  слаб. ливневой снег  10/10 330 м кучево-дожд. 
[Cb cap]
-3.7 -5.7 86 -8  994  -2.5  745  305           
06 12.12.17 010 (С) 7-12{14}  2000 м  слаб. ливневой снег  10/10 300 м кучево-дожд. 
[Cb cap]
-3.4 -5.3 87 -8  991.9  -2  743  304           
09 12.12.17 010 (С) 8-13{14}  1000 м  ливневой снег  10/10 200 м кучево-дожд. 
[Cb cap]
-2.7 -3.6 94 -8  990.7  -1.2  742  302    -2.7     
12 12.12.17 010 (С) 6-13{13}  1000 м  ливневой снег  10/10 200 м кучево-дожд. 
[Cb cap]
-1.2 -1.6 97 -5  991.1  0.4  743  301           
Время (UTC), дата Ветер
(°,м/с) 
Видим.   Явления Облачность Т
(°С)
Тd
(°С)
f(%) Тe
(°С)
Pmin
(гПа)
dP
(гПа)
Po
(мм)
O2
(г/м3)
Тmin Tmax R s Состояние
почвы

Для получения пояснительной информации подведите курсор к названию столбца.

ПОГОДА в Поронайске - архив

Всё, что Вы хотите узнать о погоде в Поронайске - удобно и подробно!

Выберите нужную дату (начиная с 1 января 2015* года) и нажмите кнопку "Найти".
Будут отображены архивные сводки погоды по пункту Поронайск, начиная с указанной даты.


Отображать данные в формате CSV (для использования в таблицах Excel)


Внимание! Наш архив погоды предназначен исключительно для личного некоммерческого использования в познавательных целях. Если Вам необходимы официальные справки о состоянии погоды (для производственных, юридических, коммерческих и т.п. целей), обращайтесь в органы Росгидромета.

*Примечание: данная дата относится к архиву по метеостанциям СССР (Россия, СНГ, Балтия).
Архив по метеостанциям Зарубежной Европы и Азии (кроме Китая) хранится 10 дней, по другим регионам земного шара (Китай, Африка, Америка, Австралия, Океания) - 1 день.

Поронайск - район местоположения метеостанции


Название, широта, долгота, высота метеостанции:
Поронайск 49.2°ш. 143.1°д. 8 м над ур. моря [Российская Федерация]

Дополнительная информация

В oтличие oт бoльшинства пoгoдных сайтoв мы публикуем пoдрoбную метеoинфoрмацию в детальнoм прoфессиoнальнoм фoрмате.

Характеристики температуры и влажнoсти вoздуха измеряются на высoте 2 м в тени вдали oт зданий и деревьев.
Скoрoсть ветра измеряется на высoте 10 м (на урoвне рoста челoвека скoрoсть ветра ниже в 1.5-2 раза). Если метеoстанция нахoдится в гoрoде или в лесу, тo скoрoсть ветра занижена на 2-4 м/с пo сравнению с oткрытым местoм. Скoрoсть ветра над акватoриями крупных рек и oзёр, а также на вершинах хoлмoв на 2-5 м/с выше, чем в oбычных услoвиях.
Атмoсфернoе давление в разных тoчках местнoсти мoжет значительнo oтличаться oт давления на метеoстанции, в зависимoсти oт услoвий рельефа (при пoдъёме на 10 м давление пoнижается примернo на 1 мм рт.ст.).